Skip Page Navigation
NASA JPL Caltech
NASA Logo - Jet Propulsion Laboratory + View the NASA Portal
+ Center for Near-Earth Object Studies
JPL Home Earth Solar System Stars & Galaxies Technology
JPL Solar System Dynamics
BODIES ORBITS EPHEMERIDES TOOLS PHYSICAL DATA DISCOVERY FAQ SITE MAP
JPL Small-Body Database Browser
Search: [ help ]  
233124 (2005 TF83)
Classification: Main-belt Asteroid          SPK-ID: 2233124
Ephemeris | Orbit Diagram | Orbital Elements | Mission Design | Physical Parameters | Discovery Circumstances ]

[ show orbit diagram ]
Orbital Elements at Epoch 2459000.5 (2020-May-31.0) TDB
Reference: JPL 17 (heliocentric ecliptic J2000)
 Element Value Uncertainty (1-sigma)   Units 
e .16218059631665 4.5382e-08  
a 2.230376409120773 1.102e-08 au
q 1.868652633078978 1.0275e-07 au
i 3.847193080881573 4.7675e-06 deg
node 337.1986364489318 6.617e-05 deg
peri 18.91375772215907 6.7379e-05 deg
M 166.4081797998252 1.3852e-05 deg
tp 2458438.109675132887
(2018-Nov-15.60967513)
4.554e-05 TDB
period 1216.650030038809
3.33
9.0168e-06
2.469e-08
d
yr
n .2958944570021641 2.1929e-09 deg/d
Q 2.592100185162569 1.2807e-08 au
  Orbit Determination Parameters
   # obs. used (total)      362  
   data-arc span      6236 days (17.07 yr)  
   first obs. used      2003-01-05  
   last obs. used      2020-02-01  
   planetary ephem.      DE431  
   SB-pert. ephem.      SB431-N16  
   condition code      0  
   norm. resid. RMS      .52423  
   source      ORB  
   producer      Otto Matic  
   solution date      2020-Feb-25 07:16:36  

Additional Information
 Earth MOID = .864481 au 
 Jupiter MOID = 2.84354 au 
 T_jup = 3.622 
[ show covariance matrix ]

Ephemeris | Orbit Diagram | Orbital Elements | Mission Design | Physical Parameters | Discovery Circumstances ]

Physical Parameter Table
Parameter Symbol Value Units Sigma Reference Notes
absolute magnitude H 17.2   n/a MPO454686  

233124 (2005 TF83)          Discovered 2005-Oct-03 by LINEAR at Socorro
Reference: 20100228/Numbers.arcLast Updated: 2010-03-03
Ephemeris | Orbit Diagram | Orbital Elements | Mission Design | Physical Parameters | Discovery Circumstances ]
ABOUT SSD CREDITS/AWARDS PRIVACY/COPYRIGHT GLOSSARY LINKS
FirstGov 2020-Jul-12 20:14 UT
(server date/time)  
NASA Home Page
Site Manager:   Ryan S. Park
Webmaster  Alan B. Chamberlin